SCP
0 0 0 0 0 0 0 0 0 0 0 0 0 0 0 0 0 0 0 0 0 0 0 0 0 0 0 0 0 0 0 0 0 0 0 0 0 0 0 0 0 0 0
0 0 0 0 0 0 0 0 0 0 0 0 0 0 0 0 0 0 0 0 0 0 0 0 0 0 0 0 0 0 0 0 0 0 0 0 0 0 0 0 0 0 0
0 0 0 0 0 0 0 0 0 0 0 0 0 0 0 0 0 0 0 0 0 0 0 0 0 0 0 0 0 0 0 0 0 0 0 0 0 0 0 0 0 0 0
0 0 0 0 0 0 0 0 0 0 0 0 0 0 0 0 0 0 0 0 0 0 0 0 0 0 0 0 0 0 0 0 0 0 0 0 0 0 0 0 0 0 0
0 0 0 0 0 0 0 0 0 0 0 0 0 0 0 0 0 0 0 0 0 0 0 0 0 0 0 0 0 0 0 0 0 0 0 0 0 0 0 0 0 0 0
0 0 0 0 0 0 0 0 0 0 0 0 0 0 0 0 0 0 0 0 0 0 0 0 0 0 0 0 0 0 0 0 0 0 0 0 0 0 0 0 0 0 0
0 0 0 0 0 0 0 0 0 0 0 0 0 0 0 0 0 0 0 0 0 0 0 0 0 0 0 0 0 0 0 0 0 0 0 0 0 0 0 0 0 0 0
0 0 0 0 0 0 0 0 0 0 0 0 0 0 0 0 0 0 0 0 0 0 0 0 0 0 0 0 0 0 0 0 0 0 0 0 0 0 0 0 0 0 0
0 0 0 0 0 0 0 0 0 0 0 0 0 0 0 0 0 0 0 0 0 0 0 0 0 0 0 0 0 0 0 0 0 0 0 0 0 0 0 0 0 0 0
0 0 0 0 0 0 0 0 0 0 0 0 0 0 0 0 0 0 0 0 0 0 0 0 0 0 0 0 0 0 0 0 0 0 0 0 0 0 0 0 0 0 0
0 0 0 0 0 0 0 0 0 0 0 0 0 0 0 0 0 0 0 0 0 0 0 0 0 0 0 0 0 0 0 0 0 0 0 0 0 0 0 0 0 0 0
0 0 0 0 0 0 0 0 0 0 0 0 0 0 0 0 0 0 0 0 0 0 0 0 0 0 0 0 0 0 0 0 0 0 0 0 0 0 0 0 0 0 0
0 0 0 0 0 0 0 0 0 0 0 0 0 0 0 0 0 0 0 0 0 0 0 0 0 0 0 -0 0 0 0 0 0 0 0 0 0 0 0 0 0 0 0
0 0 0 0 0 0 0 0 0 0 0 0 0 0 0 0 0 0 0 0 0 0 0 -0 -0 0 0 0 0 0 0 0 0 0 0 0 0 0 0 0 0 0 0
0 0 0 0 0 0 0 0 0 0 0 0 0 0 0 0 0 0 0 0 0 0 0 0 0 0 0 0 0 0 0 0 0 0 0 0 0 0 0 0 0 0 0
0 0 0 0 0 0 0 0 0 0 0 0 0 0 0 0 0 0 0 0 0 0 0 0 0 0 0 0 0 0 0 0 0 0 0 0 0 0 0 0 0 0 0
0 0 0 0 0 0 0 0 0 0 0 0 0 0 0 0 0 0 0 0 0 0 0 0 0 0 0 0 0 0 0 0 0 0 0 0 0 0 0 0 0 0 0
0 0 0 0 0 0 0 0 0 0 0 0 0 0 0 0 0 0 0 0 0 0 0 0 0 0 0 0 0 0 0 0 0 0 0 0 0 0 0 0 0 0 0
0 0 0 0 0 0 0 0 0 0 0 0 0 0 0 0 0 0 0 0 0 0 0 0 0 0 0 0 0 0 0 0 0 0 0 0 0 0 0 0 0 0 0
0 0 0 0 0 0 0 0 0 0 0 0 0 0 0 0 0 0 0 0 0 0 0 0 0 0 0 0 0 0 0 0 0 0 0 0 0 0 0 0 0 0 0
0 0 0 0 0 0 0 0 0 0 0 0 0 0 0 0 0 0 0 0 0 0 0 0 0 0 0 0 0 0 0 0 0 0 0 0 0 0 0 0 0 0 0
0 0 0 0 0 0 0 0 0 0 0 0 0 0 0 0 0 0 0 0 0 0 0 0 0 0 0 0 0 0 0 0 0 0 0 0 0 0 0 0 0 0 0
0 0 0 0 0 0 0 0 0 0 0 0 0 0 0 0 0 0 0 0 0 0 0 0 0 0 0 0 0 0 0 0 0 0 0 0 0 0 0 0 0 0 0
0 0 0 0 0 0 0 0 0 0 0 0 0 0 0 0 0 0 0 0 0 0 0 0 0 0 0 0 0 0 0 0 0 0 0 0 0 0 0 0 0 0 0
0 0 0 0 0 0 0 0 0 0 0 0 0 0 0 0 0 0 0 0 0 0 0 0 0 0 0 0 0 0 0 0 0 0 0 0 0 0 0 0 0 0 0
0 0 0 0 0 0 0 0 0 0 0 0 0 0 0 0 0 0 0 0 0 0 0 0 0 0 0 0 0 0 0 0 0 0 0 0 0 0 0 0 0 0 0
Wind_Speed
4 4 3 3 3 2 2 3 3 2 2 2 3 3 3 3 3 2 2 2 2 2 2 2 3 3 2 2 1 2 2 3 4 3 2 2 2 3 3 3 4 5 5
4 4 3 3 2 2 3 3 3 3 2 2 2 3 3 3 3 2 3 3 2 3 3 3 3 3 2 2 2 2 3 3 4 4 3 2 3 4 4 4 4 4 4
4 4 3 3 3 3 4 3 3 3 3 2 2 3 3 3 3 3 2 3 3 3 3 3 3 3 3 2 2 3 3 3 3 3 3 2 2 2 3 3 3 3 4
4 4 5 5 4 4 4 3 3 3 3 3 3 3 3 3 3 3 2 2 3 3 3 3 4 3 4 4 3 3 3 3 3 3 4 3 3 2 2 3 3 3 3
5 5 6 5 4 4 4 4 3 3 3 3 3 4 4 3 3 3 3 3 3 3 4 4 4 5 6 4 3 3 3 3 3 3 4 3 3 2 3 2 3 3 4
5 6 5 4 4 4 4 4 3 4 4 3 4 4 4 4 7 7 4 2 3 3 4 4 4 5 6 6 6 6 5 4 4 4 4 4 5 4 3 3 3 3 3
6 5 5 4 5 5 4 4 4 4 4 4 4 4 5 7 10 8 6 3 3 3 3 4 4 4 5 4 6 7 6 7 7 5 6 6 5 4 4 4 4 4 5
5 5 5 5 5 4 4 5 5 4 4 4 5 5 5 7 10 8 7 3 3 3 4 4 4 4 4 4 3 4 5 5 6 5 6 6 6 5 5 6 5 5 4
5 6 5 5 5 5 5 6 5 4 5 5 5 5 6 8 10 9 6 2 3 4 4 4 4 4 8 7 4 5 6 5 6 7 9 9 11 11 8 4 4 4 4
6 5 4 4 5 5 6 5 3 4 5 4 5 5 6 7 10 10 7 2 3 4 3 3 5 6 8 7 4 4 6 6 5 6 6 7 7 7 8 6 5 5 4
4 3 2 2 3 4 3 3 3 3 3 4 5 5 5 7 9 10 7 3 3 3 3 3 3 7 8 8 6 4 7 7 5 5 5 5 4 4 4 5 5 5 5
3 2 1 1 1 1 1 2 2 2 3 4 4 5 4 4 5 7 7 6 5 4 4 3 4 7 8 9 6 7 9 7 3 4 4 4 4 4 3 4 5 6 6
4 2 1 1 0 0 0 1 1 1 1 2 2 4 5 3 4 7 7 6 6 4 3 4 5 6 7 6 7 9 6 3 3 3 4 4 3 4 3 3 3 4 4
4 3 2 2 1 2 1 1 1 1 1 2 2 3 4 4 4 3 3 3 3 2 1 2 4 5 4 5 6 5 3 2 3 3 4 4 3 3 3 2 2 2 3
5 3 3 2 2 2 2 1 2 2 2 1 2 2 3 4 5 6 2 1 0 0 1 2 2 3 4 4 4 4 3 3 3 3 3 4 3 3 3 2 2 2 3
5 3 2 2 2 2 2 2 4 3 7 8 7 5 2 4 7 6 5 5 4 4 4 3 3 3 3 4 4 4 4 4 3 3 4 4 4 4 4 3 3 3 4
6 4 3 3 2 2 2 2 2 4 6 8 11 11 10 10 11 9 9 9 10 8 5 4 3 4 4 4 4 4 4 5 4 4 4 4 4 4 4 4 4 4 5
6 6 5 3 3 3 2 2 2 2 3 4 7 11 12 12 13 12 9 8 7 7 5 4 4 4 4 4 4 4 4 5 5 5 5 5 5 5 5 5 5 5 5
6 4 4 4 3 3 3 3 3 3 3 3 3 6 10 9 11 12 10 6 5 5 4 4 4 4 4 4 5 5 5 5 5 5 5 6 6 6 6 6 5 6 6
6 11 8 5 4 4 3 3 3 3 3 3 3 3 4 5 5 6 6 5 4 4 4 4 4 4 4 4 4 4 5 5 5 5 6 6 6 6 7 8 7 6 5
5 7 11 6 4 4 3 3 3 3 3 3 2 3 5 3 3 4 3 3 3 3 3 3 3 3 3 3 3 4 5 4 5 5 5 6 6 6 6 6 7 7 7
6 5 5 5 4 3 3 3 3 2 2 2 2 3 6 3 2 2 3 3 3 2 2 2 2 2 2 3 3 3 4 4 5 5 5 6 6 7 7 7 7 7 8
6 6 5 4 4 5 4 2 2 2 1 1 1 1 2 2 2 2 2 2 2 3 3 2 3 3 3 3 3 3 4 4 5 6 6 6 6 7 7 8 9 9 9
6 7 6 5 4 3 3 2 2 1 1 0 0 0 1 1 2 2 2 2 3 3 3 3 3 4 6 5 4 4 4 5 6 5 7 7 8 7 7 7 8 10 10
6 6 5 5 4 4 3 2 2 1 1 1 1 1 1 1 2 2 2 3 3 4 4 4 3 4 6 7 7 6 9 11 10 8 6 6 8 9 9 9 9 10 10
6 6 5 4 4 4 3 3 2 2 2 1 1 1 2 2 2 3 3 3 3 4 4 4 5 7 8 7 8 10 12 13 13 13 9 7 8 8 9 8 11 10 10
Wind_Direction
225 226 238 251 256 260 259 268 277 287 299 310 319 326 333 336 338 340 328 334 339 329 328 320 310 301 291 283 260 237 229 219 243 261 249 258 260 261 263 246 242 235 237
217 215 228 244 253 258 264 273 276 282 288 291 306 316 318 321 325 325 321 332 331 322 319 320 311 313 300 286 271 255 243 230 232 256 261 255 251 255 255 254 250 241 235
203 207 225 238 243 253 262 272 273 275 286 295 296 298 302 306 309 304 296 301 303 299 299 298 297 301 291 282 274 265 258 250 232 243 259 248 254 252 256 257 249 247 245
197 205 223 234 236 246 256 263 263 265 276 285 287 286 287 289 289 288 286 291 296 295 290 283 282 274 269 272 272 266 257 253 243 244 255 255 251 251 239 249 258 242 250
196 212 228 234 236 243 252 257 260 264 267 272 284 293 292 284 273 270 267 271 282 295 297 290 283 284 277 267 260 258 253 250 251 247 251 255 254 244 242 237 251 262 255
202 221 229 229 235 241 247 252 260 265 270 272 274 281 289 283 293 293 276 255 269 280 290 296 296 297 309 311 308 295 274 258 253 251 253 251 255 245 242 242 245 252 261
210 225 226 225 236 243 246 251 256 259 262 268 269 270 276 280 289 295 289 260 258 267 273 287 300 304 314 300 303 308 301 289 271 256 256 255 252 239 236 244 238 240 245
213 226 227 224 238 246 245 250 253 252 254 260 266 268 272 278 286 286 285 270 260 267 265 267 275 292 295 292 287 294 288 282 273 263 251 255 251 246 235 242 250 255 260
217 227 228 220 232 242 246 251 250 246 253 252 256 263 266 277 285 284 276 246 260 272 271 265 263 277 295 302 294 292 293 287 276 270 268 269 268 261 247 241 239 241 255
220 227 226 218 224 238 247 254 248 239 253 263 265 259 255 267 281 283 274 222 253 271 281 275 271 275 291 301 283 282 291 290 293 298 293 286 276 268 255 235 233 239 243
209 203 207 214 224 238 254 259 263 263 270 273 276 277 266 263 278 282 271 217 226 255 272 278 277 290 297 302 297 270 274 285 286 284 287 286 280 263 251 237 229 231 235
157 163 186 217 240 239 258 285 287 281 287 291 294 298 287 275 270 280 277 250 220 218 248 260 276 297 304 307 302 292 295 297 285 285 285 285 282 274 261 246 239 236 237
138 146 148 90 35 2 303 310 324 330 310 305 306 303 307 307 296 292 290 281 251 221 238 259 287 308 318 317 314 316 317 305 293 289 289 286 277 273 274 264 246 239 244
139 140 121 97 58 38 41 44 39 3 344 332 327 313 310 316 318 315 304 303 296 260 275 324 338 343 340 320 322 327 324 298 290 287 291 288 287 284 284 276 264 258 259
129 123 109 96 84 54 48 61 68 48 68 39 324 306 321 323 322 321 313 312 257 162 94 49 26 7 360 353 343 334 329 329 318 300 296 297 300 296 289 276 262 259 259
129 125 117 105 86 74 70 48 42 54 49 46 38 31 356 346 344 7 34 43 53 89 88 57 29 12 357 346 341 337 334 335 325 314 309 304 304 302 298 286 263 261 265
134 132 120 110 101 88 80 82 43 15 24 31 31 34 36 31 33 40 53 58 57 64 62 49 30 10 359 351 344 339 336 334 331 328 323 319 315 310 303 298 289 280 274
127 128 124 115 108 98 89 82 77 62 31 5 8 23 31 38 40 40 46 61 53 48 46 39 23 8 359 353 349 347 344 347 349 345 340 336 330 322 315 308 301 293 288
127 123 118 112 104 98 91 83 76 70 61 29 10 12 21 32 41 42 48 55 55 45 37 30 19 10 4 359 356 355 356 355 351 347 346 341 337 332 323 316 309 299 288
131 135 128 118 107 99 92 90 83 77 66 49 34 14 4 29 41 35 38 42 45 38 32 24 12 8 5 3 1 0 0 358 355 352 344 338 334 329 325 322 317 311 301
130 135 130 118 113 113 109 104 100 93 81 63 34 27 49 55 46 36 31 27 25 19 14 11 3 358 358 357 357 357 357 353 349 345 340 335 333 330 324 319 317 314 309
131 128 129 128 125 121 119 116 110 102 90 76 32 19 34 46 39 32 20 9 1 358 352 346 339 333 333 338 338 341 342 338 335 334 331 329 328 327 325 322 320 319 317
134 133 129 128 128 129 122 118 117 115 102 76 43 21 16 16 8 3 352 342 341 338 337 338 330 324 321 317 316 316 317 315 313 315 319 320 321 321 322 321 319 317 315
139 139 139 138 135 135 139 141 142 142 143 150 358 343 333 331 328 328 324 320 323 321 320 319 313 312 314 314 307 301 296 298 302 301 304 306 309 310 309 310 311 312 311
142 143 145 148 149 151 153 157 164 174 186 218 255 284 300 307 309 310 310 311 314 311 312 311 305 306 307 307 307 305 305 308 308 305 297 295 297 299 301 301 302 304 304
146 148 149 151 155 159 163 170 182 191 204 226 245 261 274 284 291 296 303 306 307 303 303 302 300 302 302 302 302 305 308 309 309 307 302 293 289 289 293 293 296 296 297